Regional Weather Roundup
Issued by NWS

Home | Current Version | Previous Version | Graphics & Text | Print | Product List | Glossary On
Versions: 1 2 3 4 5 6 7 8 9 10 11 12 13 14 15 16 17 18 19 20 21 22 23 24 25 26 27 28 29 30 31 32 33 34 35 36 37 38 39 40 41 42 43 44 45 46 47 48 49 50
654
ASUS43 KIND 231209
RWRIN

WEATHER ROUNDUP FOR INDIANA
NATIONAL WEATHER SERVICE INDIANAPOLIS IN
800 AM EDT TUE MAY 23 2017

NOTE: "FAIR" INDICATES FEW OR NO CLOUDS BELOW 12,000 FEET WITH NO
SIGNIFICANT WEATHER AND/OR OBSTRUCTIONS TO VISIBILITY.

* - STATION DOES NOT REPORT WEATHER SUCH AS PRECIPITATION OR FOG.

+ - STATION NOT QUALITY CONTROLLED BY THE NATIONAL WEATHER SERVICE.
    USE DATA WITH CAUTION...ESPECIALLY DEWPOINT AND RELATIVE
    HUMIDITY OBSERVATIONS.

INZ001>003-010>013-019-020-231300-
NORTHWEST INDIANA

CITY           SKY/WX    TMP DP  RH WIND       PRES   REMARKS
GARY /AIRPORT/ LGT RAIN  61  54  77 S8        29.84S
KNOX *+        CLOUDY    57  48  72 CALM      29.85F
LA PORTE +     LGT RAIN  58  54  86 S3        29.86S
6HR MIN TEMP:  58; 6HR MAX TEMP:  60;

MICHIGAN CITY+ RAIN      59  52  77 S6        29.85S
MONTICELLO +   CLOUDY    58  53  81 CALM      29.85F
6HR MIN TEMP:  57; 6HR MAX TEMP:  60;

RENSSELAER +   CLOUDY    59  54  82 CALM      29.86S
VALPARAISO     LGT RAIN  59  55  87 S6        29.84F
6HR MIN TEMP:  59; 6HR MAX TEMP:  61; 6HR PCP: TRACE;


$$

LMZ046-743>745-231300-
SOUTHERN LAKE MICHIGAN

STATION/POSITION TIME  TEMP    WIND        PRES    WAVE
                       AIR SEA DIR/SP/G            HT
                 (UTC) (F)     (DEG/KT/KT) (MB)    (FT)
BURNS HARBOR     1140   60     190/ 10/ 14 1010.8S
MICHIGAN CITY    1140   60     160/ 10/ 12   N/A
5NW MICH CITY    1200   57 53  200/ 10/ 12   N/A     1

$$

INZ004-005-014>016-021>024-231300-
NORTH CENTRAL INDIANA

CITY           SKY/WX    TMP DP  RH WIND       PRES   REMARKS
ELKHART        PTSUNNY   59  52  77 S5        29.85F
GOSHEN         CLOUDY    60  51  72 S6        29.86F
6HR MIN TEMP:  58; 6HR MAX TEMP:  61; 6HR PCP: TRACE;

LOGANSPORT +   MOSUNNY   59  52  77 CALM      29.87F
PERU/GRISSOM   CLOUDY    59  51  73 CALM      29.86S
6HR MIN TEMP:  57; 6HR MAX TEMP:  60;

ROCHESTER +    PTSUNNY   61  52  72 S3        29.87S
SOUTH BEND     CLOUDY    58  53  84 SW8       29.86S
6HR MIN TEMP:  57; 6HR MAX TEMP:  62; 6HR PCP: TRACE;

WARSAW +       CLOUDY    59  50  72 CALM      29.87S

$$

INZ006>009-017-018-025>027-231300-
NORTHEAST INDIANA

CITY           SKY/WX    TMP DP  RH WIND       PRES   REMARKS
ANGOLA *+      CLOUDY    57  46  67 CALM      29.88S
AUBURN +       PTSUNNY   59  50  72 CALM      29.88F
FORT WAYNE     CLOUDY    58  51  78 CALM      29.88S
6HR MIN TEMP:  56; 6HR MAX TEMP:  59; 6HR PCP: TRACE;

HUNTINGTON +   MOSUNNY   57  51  79 CALM      29.88S
6HR MIN TEMP:  55; 6HR MAX TEMP:  59;

KENDALLVILLE + CLOUDY    59  50  72 CALM      29.88F

$$

INZ028-029-035-036-043>045-051>053-231300-
WEST CENTRAL INDIANA

CITY           SKY/WX    TMP DP  RH WIND       PRES   REMARKS
CRAWFORDSVL +  CLOUDY    55  53  96 CALM      29.87S
6HR MIN TEMP:  53; 6HR MAX TEMP:  56;

GREENCASTLE +  MOSUNNY   55  50  82 SE3       29.87S
LAFAYETTE      PTSUNNY   58  56  93 CALM      29.86S
6HR MIN TEMP:  55; 6HR MAX TEMP:  59;

TERRE HAUTE    CLOUDY    59  51  75 N5        29.86S
6HR MIN TEMP:  57; 6HR MAX TEMP:  61;


$$

INZ030>032-037>040-046>048-054>057-064-065-231300-
CENTRAL INDIANA

CITY           SKY/WX    TMP DP  RH WIND       PRES   REMARKS
CP ATTERBURY + CLOUDY    52  50  93 CALM      29.89S
COLUMBUS       SUNNY     55  50  82 CALM      29.89S
FISHERS *+     MOSUNNY   57  54  88 S3        29.88
FRANKFORT +    CLOUDY    60  53  77 CALM      29.89S
6HR MIN TEMP:  58; 6HR MAX TEMP:  61;

GREENWOOD *+   PTSUNNY   58  48  70 SE6       29.88F
6HR MIN TEMP:  56; 6HR MAX TEMP:  60;

INDIANAPOLIS   CLOUDY    58  49  72 SE6       29.87S
6HR MIN TEMP:  56; 6HR MAX TEMP:  59;

-EAGLE CREEK     N/A     59  49  69 SE3       29.86F
6HR MIN TEMP:  56; 6HR MAX TEMP:  61;

KOKOMO +       CLOUDY    58  52  80 SE5       29.88S
6HR MIN TEMP:  57; 6HR MAX TEMP:  60;

MARION +       CLOUDY    57  50  77 S5        29.89R HAZE
MT COMFORT *+  MOSUNNY   57  50  77 CALM      29.89R
SHELBYVILLE    MOSUNNY   60  50  69 SE6       29.88S
6HR MIN TEMP:  56; 6HR MAX TEMP:  61;

ZIONSVILLE +   MOSUNNY   57  51  79 CALM      29.88F
6HR MIN TEMP:  54; 6HR MAX TEMP:  57;


$$

INZ033-034-041-042-049-050-058-059-231300-
EAST CENTRAL INDIANA

CITY           SKY/WX    TMP DP  RH WIND       PRES   REMARKS
MUNCIE         CLOUDY    60  48  64 S5        29.88S
6HR MIN TEMP:  56; 6HR MAX TEMP:  61;

RICHMOND +     MOSUNNY   55  46  71 SE6       29.91S

$$

INZ060-061-067>069-081>083-085>088-231300-
SOUTHWEST INDIANA

CITY           SKY/WX    TMP DP  RH WIND       PRES   REMARKS
EVANSVILLE     MOSUNNY   60  53  77 NE3       29.84F
6HR MIN TEMP:  56; 6HR MAX TEMP:  61;

HUNTINGBURG *+ PTSUNNY   57  53  86 CALM      29.84F
6HR MIN TEMP:  53; 6HR MAX TEMP:  57;

WASHINGTON +   MOSUNNY   58  52  79 E6        29.84F
6HR MIN TEMP:  56; 6HR MAX TEMP:  59;


$$

INZ062-063-066-070>080-084-089>092-231300-
SOUTH CENTRAL AND SOUTHEAST INDIANA

CITY           SKY/WX    TMP DP  RH WIND       PRES   REMARKS
BLOOMINGTON    CLOUDY    57  50  77 SE3       29.86F
6HR MIN TEMP:  54; 6HR MAX TEMP:  59;

MADISON *+     CLOUDY    55  52  88 NE5       29.89F
NORTH VERNON + CLOUDY    54  48  82 E3        29.88F
SEYMOUR +      PTSUNNY   55  52  88 CALM      29.87F

$$





USA.gov is the U.S. government's official web portal to all federal, state and local government web resources and services.